User: anonymous
Location: Mentone
(34.5413°N, 85.5351°W)
Time: 14:17:54
(UTC-05:00)
Language:

S-56A Canister/Altair - Orbit

View from above orbital plane
View from above orbital plane
View from above satellite
View from above satellite

Ground track
Ground track

The orbit data is extracted from the following two-line orbital elements,

1 00082U 61004B   14113.40899623 -.00000004  00000-0  47228-4 0  6856
2 00082 038.8551 234.9934 1177254 042.9452 325.7329 12.25639812532054
Epoch (UTC): 23 April 2014 09:48:57
Eccentricity: 0.1177254
inclination: 38.8551°
perigee height: 632 km
apogee height: 2503 km
right ascension of ascending node: 234.9934°
argument of perigee: 42.9452°
revolutions per day: 12.25639812
mean anomaly at epoch: 325.7329°
orbit number at epoch: 53205

The dashed part of the orbit path shows where the satellite is in the earth's shadow,  

DLR